Vorticity
nan nan nan nan nan nan nan nan nan nan nan nan nan nan nan nan nan nan nan nan nan nan nan nan nan nan nan nan nan nan nan nan
nan 10 8 8 8 4 10 13 20 12 7 8 5 3 5 4 5 8 6 6 6 5 6 6 5 4 3 4 4 16 9 nan
nan 9 10 9 6 4 5 13 18 17 6 4 2 8 6 6 7 6 7 5 6 6 6 5 3 4 6 4 5 12 6 nan
nan 7 6 5 8 8 6 8 7 8 5 5 4 8 8 6 7 4 3 5 3 3 4 3 3 2 4 5 15 4 5 nan
nan 6 8 6 4 5 6 5 7 10 8 5 4 5 7 7 4 4 5 2 2 4 2 4 5 6 5 10 9 7 5 nan
nan 5 7 7 6 8 8 6 6 8 11 7 8 11 9 6 6 6 4 6 6 3 3 9 7 6 5 9 6 8 8 nan
nan 6 8 7 6 8 9 9 10 13 12 6 8 12 9 7 7 6 7 9 7 6 8 7 8 5 9 5 6 8 8 nan
nan 9 8 7 8 10 10 12 13 13 12 17 13 5 8 9 9 8 7 6 7 8 8 7 7 8 8 7 8 7 8 nan
nan 7 6 9 9 9 10 11 11 10 14 15 8 9 12 9 8 7 8 10 4 7 9 7 8 8 8 6 7 6 8 nan
nan 7 8 7 7 7 9 9 9 9 9 9 8 7 7 8 10 10 7 9 9 7 7 8 8 8 7 7 6 7 6 nan
nan 8 9 7 7 7 10 8 6 7 8 5 5 7 7 6 8 10 9 5 7 8 9 8 9 8 7 8 6 8 7 nan
nan 8 7 7 6 7 8 8 9 8 7 8 7 6 7 3 8 8 7 7 6 5 7 8 9 9 8 7 7 7 7 nan
nan 7 6 5 7 8 7 8 9 8 9 10 5 8 7 5 8 6 6 7 10 8 6 8 8 8 8 7 7 8 7 nan
nan 8 7 5 5 9 10 8 7 9 10 9 7 9 8 7 7 7 7 6 8 7 6 7 9 8 7 7 7 8 9 nan
nan 9 7 7 5 9 11 6 6 8 11 9 7 8 9 8 8 7 6 8 9 8 9 7 6 6 5 6 8 10 12 nan
nan 8 7 6 7 10 9 7 7 6 7 7 12 8 6 8 7 8 5 8 8 7 9 6 7 6 7 7 6 9 8 nan
nan 7 9 8 6 5 6 8 5 9 12 10 8 9 10 7 6 6 6 8 9 9 8 6 5 6 8 9 10 5 5 nan
nan 8 7 9 6 6 7 6 5 7 9 8 9 9 7 10 8 7 7 8 7 9 7 7 5 5 5 8 9 8 6 nan
nan 9 7 9 8 5 7 10 7 4 5 6 7 5 8 10 7 5 6 7 8 6 7 9 8 8 6 5 6 5 8 nan
nan nan nan nan nan nan nan nan nan nan nan nan nan nan nan nan nan nan nan nan nan nan nan nan nan nan nan nan nan nan nan nan
CAPE
1863 1541 922 333 41 76 284 198 27 347 647 827 710 781 873 799 686 680 461 180 114 40 8 0 0 0 0 0 0 2 3 7
1661 1241 858 522 244 127 131 298 243 261 545 428 399 450 598 568 430 473 332 183 76 13 4 0 0 0 0 0 0 0 2 4
396 800 805 447 417 83 29 20 276 217 392 297 191 271 180 352 253 311 263 149 52 10 3 0 0 0 0 0 0 7 6 10
65 427 238 187 187 312 334 406 568 494 459 446 244 275 160 295 318 261 172 89 18 3 0 0 0 0 0 0 4 8 11 5
112 1 170 334 140 206 269 678 971 967 595 286 72 174 158 88 332 284 179 41 0 0 0 0 0 0 0 1 5 17 20 3
42 4 38 165 137 79 205 306 492 425 478 123 103 84 57 153 194 178 179 0 0 0 0 3 0 0 0 2 1 25 24 3
226 74 1 4 34 32 1 240 248 330 288 201 16 13 79 57 114 262 124 39 0 0 0 0 1 0 0 2 4 28 22 6
305 109 49 52 75 113 71 39 81 186 8 41 20 0 29 35 37 134 228 161 61 17 10 1 0 0 1 3 7 23 28 9
121 101 6 22 19 15 9 8 8 1 0 1 0 0 42 93 83 162 298 235 251 140 39 0 0 0 0 5 6 16 16 27
109 30 33 38 26 13 10 6 4 3 3 0 0 0 10 6 76 131 269 266 184 120 38 0 2 0 0 3 5 5 18 27
54 79 45 62 67 19 11 3 2 1 0 0 0 0 0 0 44 116 137 100 100 112 94 79 13 3 1 0 2 0 19 6
8 44 30 39 8 38 4 12 7 0 2 0 0 0 10 31 32 63 59 15 57 98 102 65 35 3 0 0 0 0 1 15
15 25 13 10 13 15 3 7 9 0 0 0 0 9 40 37 70 73 62 16 10 68 30 46 5 4 0 0 0 0 0 0
7 23 18 13 17 17 5 2 6 2 0 0 0 18 36 141 158 147 45 24 67 64 52 56 15 17 0 0 0 0 0 0
7 10 14 20 19 20 6 3 8 4 0 0 3 39 85 154 158 131 94 191 140 233 225 206 146 22 17 106 146 169 114 0
8 8 14 11 15 10 7 6 8 1 0 0 0 34 61 78 113 112 170 170 206 191 179 194 158 111 0 0 108 178 104 28
7 9 6 6 13 10 26 13 5 9 4 0 0 0 2 13 56 99 86 105 253 233 192 131 191 243 180 140 130 141 118 66
5 14 14 7 20 21 31 22 23 17 1 0 4 3 11 31 59 24 59 79 199 269 313 230 230 278 267 333 232 147 91 20
0 7 5 17 15 12 27 58 30 2 0 0 0 0 0 0 6 37 33 67 219 321 296 348 294 303 223 235 136 185 118 225
2 1 8 12 13 15 23 42 39 37 1 0 0 0 0 0 0 0 10 34 101 320 294 315 573 435 479 296 181 354 289 310